243P/NEAT (2011)

Japanese version
Home page
Updated on November 8, 2011

---------------------------------------------------------------------

* Profile

Designation 243P/2010 P5
Recovery Date August 15, 2010
Magnitude 18.9 mag
Recoverer G. Sostero, E. Guido (RAS Observatory, Mayhill, NM, U.S.A.)

* Orbital Elements

Epoch 2011 Mar. 20.0 TT = JDT 2455640.5
T 2011 Mar. 3.33352 TT                                  MPC
q   2.4561929            (2000.0)            P               Q
n   0.13113535     Peri.  283.92181     +0.97090076     -0.19931884
a   3.8369800      Node    87.69996     +0.23644046     +0.88587863
e   0.3598630      Incl.    7.63497     -0.03804753     +0.41891653
P   7.52
From 262 observations 2003 Aug. 1-2011 Oct. 26, mean residual 0".6.

* Magnitudes Graph

        m1 = 4.2 + 5 log d + 30 log r

---------------------------------------------------------------------

The orbital elements are published on M.P.E.C. 2011-V31.
The magnitudes graphs are made with Comet for Windows.

---------------------------------------------------------------------

Copyright(C) Seiichi Yoshida (comet@aerith.net). All rights reserved.